Hibbing, MN

9:21 AM CST on February 07, 2016 (GMT -0600)
Chisholm-hibbing

Weather History for KHIB - December, 2011

Change the Weather History Date:

Saturday, December 31, 2011

  Actual Average Record
Temperature  
Mean Temperature 16 °F -  
Max Temperature 30 °F 13 °F 35 °F (1965)
Min Temperature 3 °F -4 °F -35 °F (1976)
Degree Days  
Heating Degree Days 48    
Moisture  
Dew Point 21 °F    
Average Humidity 90    
Maximum Humidity 96    
Minimum Humidity 84    
Precipitation  
Precipitation 0.00 in - - ()
Sea Level Pressure  
Sea Level Pressure 29.73 in    
Wind  
Wind Speed 4 mph (SSE)    
Max Wind Speed 18 mph    
Max Gust Speed 30 mph    
Visibility 8 miles    
Events Rain , Snow    
Averages and records for this station are not official NWS values.
T = Trace of Precipitation, MM = Missing Value Source: NWS Daily Summary

Daily Weather History Graph

Daily Weather History Graph

Search for Another Location

Airport or City:

Trip Planner

Search our weather history database for the weather conditions in past years. The results will help you decide how hot, cold, wet, or windy it might be!

Date:

Astronomy

Dec. 31, 2011 Rise Set
Actual Time 7:58 AM CST 4:30 PM CST
Civil Twilight 7:23 AM CST 5:05 PM CST
Nautical Twilight 6:44 AM CST 5:44 PM CST
Astronomical Twilight 6:06 AM CST 6:22 PM CST
Moon 11:12 AM CST (12/31) No Moon Set
Length of Visible Light 9h 42m
Length of Day
8h 31m
Waxing Crescent, 45% of the Moon is Illuminated
Dec 31
Waxing Crescent
Jan 1
First Quarter
Jan 9
Full
Jan 16
Last Quarter
Jan 23
New

Hourly Weather History & Observations

Time (CST) Temp. Windchill Dew Point Humidity Pressure Visibility Wind Dir Wind Speed Gust Speed Precip Events Conditions
12:53 AM 3.0 °F - -0.0 °F 87% 29.86 in 10.0 mi Calm Calm - N/A   Clear
1:53 AM 3.9 °F - -0.0 °F 84% 29.84 in 10.0 mi Calm Calm - N/A   Scattered Clouds
2:07 AM 5.0 °F - 1.4 °F 85% 29.75 in 10.0 mi Calm Calm - N/A   Mostly Cloudy
2:53 AM 12.0 °F - 9.0 °F 88% 29.84 in 10.0 mi Calm Calm - N/A   Overcast
3:53 AM 15.8 °F 10.2 °F 12.2 °F 86% 29.74 in 10.0 mi SE 3.5 mph - N/A   Overcast
4:07 AM 15.8 °F - 12.2 °F 86% 29.74 in 10.0 mi Calm Calm - N/A   Overcast
4:53 AM 17.6 °F 12.3 °F 15.8 °F 93% 29.70 in 10.0 mi ESE 3.5 mph - N/A   Overcast
5:53 AM 19.4 °F 11.5 °F 17.6 °F 93% 29.70 in 10.0 mi SE 5.8 mph - N/A   Overcast
6:33 AM 21.2 °F 12.6 °F 17.6 °F 86% 29.70 in 10.0 mi SE 6.9 mph - N/A   Overcast
6:53 AM 21.2 °F 10.9 °F 19.4 °F 93% 29.69 in 10.0 mi SE 9.2 mph - N/A   Overcast
7:12 AM 21.2 °F 10.9 °F 19.4 °F 93% 29.69 in 10.0 mi SE 9.2 mph - N/A   Overcast
7:53 AM 23.0 °F 13.1 °F 19.9 °F 88% 29.77 in 10.0 mi SE 9.2 mph - N/A   Overcast
8:53 AM 23.0 °F 14.7 °F 21.0 °F 92% 29.78 in 8.0 mi SE 6.9 mph - N/A   Overcast
9:32 AM 24.8 °F 15.3 °F 21.2 °F 86% 29.69 in 5.0 mi SE 9.2 mph - N/A   Overcast
9:53 AM 24.8 °F 16.1 °F 23.0 °F 93% 29.69 in 5.0 mi SE 8.1 mph - N/A   Overcast
10:36 AM 24.8 °F 16.1 °F 23.0 °F 93% 29.67 in 7.0 mi SE 8.1 mph - N/A   Overcast
10:53 AM 26.1 °F 16.8 °F 23.0 °F 88% 29.75 in 8.0 mi SE 9.2 mph - N/A   Overcast
11:53 AM 27.0 °F 18.0 °F 24.1 °F 89% 29.72 in 5.0 mi SE 9.2 mph - 0.00 in Snow Light Snow
12:53 PM 28.0 °F 20.8 °F 25.0 °F 88% 29.71 in 10.0 mi SE 6.9 mph - 0.00 in   Overcast
1:53 PM 28.0 °F 24.2 °F 26.1 °F 92% 29.70 in 10.0 mi ESE 3.5 mph - N/A   Overcast
2:53 PM 28.0 °F 20.0 °F 25.0 °F 88% 29.70 in 10.0 mi SE 8.1 mph - N/A   Overcast
3:53 PM 28.9 °F 21.9 °F 25.0 °F 85% 29.71 in 10.0 mi Variable 6.9 mph - N/A   Overcast
4:53 PM 28.9 °F - 26.1 °F 89% 29.73 in 5.0 mi Calm Calm - 0.00 in Snow Light Snow
5:53 PM 28.0 °F 24.2 °F 26.1 °F 92% 29.72 in 10.0 mi SSE 3.5 mph - 0.00 in   Overcast
6:53 PM 28.9 °F - 26.1 °F 89% 29.73 in 9.0 mi Calm Calm - N/A   Overcast
7:53 PM 28.0 °F 24.2 °F 26.1 °F 92% 29.74 in 4.0 mi South 3.5 mph - N/A   Overcast
8:31 PM 28.4 °F 24.6 °F 26.6 °F 93% 29.69 in 4.0 mi SW 3.5 mph - 0.00 in Rain Light Freezing Rain
8:53 PM 28.0 °F 24.2 °F 27.0 °F 96% 29.75 in 3.0 mi Variable 3.5 mph - 0.00 in   Overcast
9:03 PM 28.4 °F - 26.6 °F 93% 29.68 in 2.5 mi Calm Calm - N/A   Overcast
9:53 PM 28.9 °F 23.9 °F 28.0 °F 96% 29.73 in 3.0 mi WNW 4.6 mph - N/A   Overcast
10:38 PM 30.2 °F 21.9 °F 28.4 °F 93% 29.68 in 7.0 mi WNW 9.2 mph - N/A   Overcast
10:53 PM 30.2 °F 21.3 °F 28.4 °F 93% 29.68 in 9.0 mi WNW 10.4 mph - N/A   Overcast
11:26 PM 30.2 °F 18.1 °F 28.4 °F 93% 29.69 in 10.0 mi WNW 18.4 mph 29.9 mph N/A   Overcast
11:53 PM 30.9 °F 19.8 °F 27.0 °F 85% 29.75 in 10.0 mi NW 16.1 mph 24.2 mph N/A   Overcast